This demonstration page uses our WeatherBlox Daily Observations layout. Learn more.

Left ArrowRight Arrow

38.80484, -77.04692

Hourly Observations for February 2, 2016

Temp ( °F °C ) Dew Point ( °F °C ) Humidity (%) Winds ( mph kmh ) Pressure ( in mb ) Visibility ( mi km ) Precip ( " mm )
12:52 am 00:52 Partly Cloudy 43 6.1 38 3.3 82 82 NNW 6 9 30.11 1020 10 16 0.00 0.00
1:52 am 01:52 Mostly Clear 38 3.3 35 1.7 89 89 N 6 9 30.13 1020 10 16 0.00 0.00
2:52 am 02:52 Mostly Clear 38 3.3 35 1.7 89 89 N 6 9 30.16 1021 10 16 0.00 0.00
3:52 am 03:52 Clear 39 3.9 34 1.1 82 82 N 8 13 30.17 1022 10 16 0.00 0.00
4:52 am 04:52 Clear 37 2.8 31 -0.6 79 79 N 6 9 30.20 1023 10 16 0.00 0.00
5:52 am 05:52 Clear 38 3.3 31 -0.6 76 76 NNE 3 6 30.23 1024 10 16 0.00 0.00
6:52 am 06:52 Mostly Clear 37 2.8 31 -0.6 79 79 N 8 13 30.29 1026 10 16 0.00 0.00
7:52 am 07:52 Partly Cloudy 38 3.3 31 -0.6 76 76 N 6 9 30.32 1027 10 16 0.00 0.00
8:52 am 08:52 Mostly Sunny 40 4.4 32 0 73 73 NE 8 13 30.33 1027 10 16 0.00 0.00
9:52 am 09:52 Mostly Sunny 44 6.7 33 0.6 65 65 NE 10 17 30.35 1028 10 16 0.00 0.00
10:52 am 10:52 Mostly Sunny 45 7.2 33 0.6 63 63 NE 12 19 30.37 1028 10 16 0.00 0.00
11:52 am 11:52 Mostly Sunny 48 8.9 34 1.1 58 58 ENE 8 13 30.34 1028 10 16 0.00 0.00
12:52 pm 12:52 Mostly Sunny 50 10 32 0 50 50 ENE 5 7 30.33 1027 10 16 0.00 0.00
1:52 pm 13:52 Partly Cloudy 50 10 29 -1.7 44 44 Calm 30.32 1027 10 16 0.00 0.00
2:52 pm 14:52 Mostly Cloudy 51 10.6 31 -0.6 46 46 E 3 6 30.30 1026 10 16 0.00 0.00
3:52 pm 15:52 Mostly Cloudy 51 10.6 30 -1.1 44 44 Calm 30.30 1026 10 16 0.00 0.00
4:52 pm 16:52 Mostly Cloudy 48 8.9 30 -1.1 50 50 SE 8 13 30.30 1026 10 16 0.00 0.00
5:52 pm 17:52 Mostly Cloudy 46 7.8 30 -1.1 54 54 ESE 7 11 30.31 1027 10 16 0.00 0.00
6:52 pm 18:52 Mostly Cloudy 44 6.7 31 -0.6 60 60 ESE 8 13 30.32 1027 10 16 0.00 0.00
7:52 pm 19:52 Cloudy 45 7.2 32 0 61 61 S 5 7 30.32 1027 10 16 0.00 0.00
8:52 pm 20:52 Cloudy 45 7.2 32 0 61 61 SSE 8 13 30.31 1027 10 16 0.00 0.00
9:52 pm 21:52 Cloudy 44 6.7 32 0 63 63 SSE 10 17 30.30 1026 10 16 0.00 0.00
10:52 pm 22:52 Cloudy 44 6.7 33 0.6 65 65 S 6 9 30.28 1026 10 16 0.00 0.00
11:52 pm 23:52 Cloudy 43 6.1 34 1.1 71 71 S 6 9 30.27 1025 10 16 0.00 0.00

Powered by AerisWeather